Flag for Germany Weather past 2 weeks in Fürth, Bavaria, Germany

Now
63 °F

Broken clouds.


Feels Like: 63 °F
Forecast: 41 / 54 °F
Wind: 8 mph from West

Location: Nuernberg

Current Time: Sep 21, 2014 at 3:12:15 PM

Latest Report: Sep 21, 2014 at 2:50 PM


Visibility: N/A

Pressure: 29.92 "Hg

Humidity: 94%

Dew point: 61 °F

Location of FürthLocation

Historic Weather in Fürth — Graph

°F

Fürth temperature yesterday

Maximum temperature yesterday: 70 °F (at 3:20 PM)
Minimum temperature yesterday: 57 °F (at 5:50 AM)
Average temperature yesterday: 62 °F

Past Weeks' High & Low Weather Summary

 TemperatureHumidityPressure
High77 °F (Sep 7, 2:20 PM)100% (Sep 6, 11:50 PM)30.12 "Hg (Sep 6, 11:50 PM)
Low46 °F (Sep 11, 5:50 AM)51% (Sep 7, 2:50 PM)29.89 "Hg (Sep 6, 3:50 PM)
Average61 °F88%30.00 "Hg
* Reported Sep 6 1:20 PM — Sep 21 1:50 PM, Fürth, Weather by CustomWeather, © 2014

Note: Actual official high and low records may vary slightly from our data, if they occured in-between our weather recording intervals... More about our weather records

Advertising

Fürth weather history for previous 24 hours

 ConditionsComfort  
Time TempWeatherWind HumidityBarometerVisibility
1:50 PM
Sep 21
63 °FBroken clouds.7 mph88%29.95 "HgN/A
1:20 PM61 °FBroken clouds.10 mph100%29.95 "HgN/A
12:50 PM61 °FLight rain. Broken clouds.7 mph100%29.95 "Hg6 mi
12:20 PM61 °FRain. Partly sunny.7 mph94%29.95 "Hg4 mi
11:50 AM61 °FLight rain. Partly sunny.5 mph100%29.95 "Hg4 mi
11:20 AM61 °FLight rain. Partly sunny.5 mph100%29.98 "Hg5 mi
10:50 AM61 °FLight rain. Broken clouds.6 mph94%29.98 "HgN/A
10:20 AM61 °FBroken clouds.6 mph94%29.98 "HgN/A
9:50 AM61 °FBroken clouds.5 mph94%29.95 "HgN/A
9:20 AM59 °FBroken clouds.2 mph100%29.95 "HgN/A
8:50 AM59 °FLight rain. Broken clouds.2 mph100%29.95 "HgN/A
8:20 AM57 °FLight rain. Broken clouds.2 mph100%29.95 "HgN/A
7:50 AM57 °FPartly cloudy.2 mph100%29.95 "HgN/A
7:20 AM55 °FLight rain. Partly cloudy.3 mph100%29.98 "HgN/A
6:50 AM55 °FLight rain. Partly cloudy.2 mph100%29.95 "HgN/A
6:20 AM55 °FFog.2 mph100%29.95 "HgN/A
5:50 AM55 °FFog.1 mph100%29.95 "HgN/A
5:20 AM55 °FSleet. Overcast.1 mph100%29.98 "Hg3 mi
4:50 AM54 °FSleet. Overcast.1 mph100%29.98 "Hg1 mi
4:20 AM55 °FSleet. Overcast.2 mph100%29.98 "Hg2 mi
3:50 AM55 °FFog.1 mph100%29.98 "Hg1 mi
3:20 AM57 °FCool.1 mph100%29.98 "HgN/A
2:50 AM59 °FSleet. Overcast.3 mph100%29.98 "Hg6 mi
2:20 AM57 °FFog.3 mph100%29.98 "Hg6 mi
1:50 AM59 °FSprinkles. Partly cloudy.2 mph100%29.98 "Hg6 mi
1:20 AM59 °FPartly cloudy.2 mph100%29.98 "HgN/A
12:50 AM59 °FThunderstorms. Partly cloudy.1 mph100%29.98 "HgN/A
12:20 AM59 °FThundershowers. Fog.3 mph100%29.98 "HgN/A
11:50 PM
Sep 20
59 °FSleet. Passing clouds.2 mph100%30.01 "HgN/A
11:20 PM59 °FSleet. Passing clouds.3 mph100%29.98 "HgN/A
10:20 PM61 °FSleet. Overcast.1 mph100%29.98 "HgN/A
9:50 PM61 °FFog.2 mph100%29.98 "HgN/A
9:20 PM61 °FPassing clouds.2 mph100%29.98 "HgN/A
8:50 PM61 °FPassing clouds.5 mph100%29.98 "HgN/A
8:20 PM63 °FPassing clouds.2 mph94%29.98 "HgN/A
7:50 PM64 °FPassing clouds.2 mph94%29.98 "HgN/A
3:20 PM70 °FScattered clouds.3 mph78%29.95 "HgN/A
Weather by CustomWeather, © 2014

See weather overviewHow to use our weather pages